Location: *
(46.1333°S, 161.2167°W)
Time: 04:11:14
(UTC+00:00)

AQUARIUS - Pass Details

Date: 15 July 2020
Orbit: 650 x 653 km, 98.0° (Epoch: 10 August)

Event Time Altitude Azimuth Distance (km) Brightness Sun altitude
Rises 16:25:49 0° 6° (N) 2,967 7.8 -19.5°
Reaches altitude 10° 16:28:02 10° 2° (N) 2,065 6.9 -19.1°
Maximum altitude 16:32:30 61° 281° (WNW) 753 4.1 -18.3°
Enters shadow 16:35:52 18° 204° (SSW) 1,638 5.9 -17.8°
